2016-01-05 00:01:57 r, 19.19m,0000000002Hz,0000260296c,0000000.565s, 007.7C,00002191
2016-01-05 00:11:56 r, 19.89m,0000000001Hz,0000489645c,0000001.063s, 007.7C,00002191
2016-01-05 00:21:56 r, 19.87m,0000000001Hz,0000484125c,0000001.051s, 007.7C,00002191
2016-01-05 00:31:57 r, 20.11m,0000000001Hz,0000604688c,0000001.312s, 007.4C,00002191
2016-01-05 00:41:56 r, 19.92m,0000000001Hz,0000506939c,0000001.100s, 007.4C,00002191
2016-01-05 00:51:56 r, 20.04m,0000000001Hz,0000568377c,0000001.233s, 007.4C,00002191
2016-01-05 01:01:56 r, 20.01m,0000000001Hz,0000552121c,0000001.198s, 007.0C,00002191
2016-01-05 01:11:56 r, 20.28m,0000000001Hz,0000708577c,0000001.538s, 007.0C,00002191
2016-01-05 01:21:56 r, 20.32m,0000000000Hz,0000726635c,0000001.577s, 007.0C,00002191
2016-01-05 01:31:58 r, 20.35m,0000000001Hz,0000750784c,0000001.629s, 007.0C,00002191
2016-01-05 01:41:56 r, 20.32m,0000000000Hz,0000725166c,0000001.574s, 007.0C,00002191
2016-01-05 01:51:56 r, 20.32m,0000000001Hz,0000728001c,0000001.580s, 006.7C,00002191
2016-01-05 02:01:56 r, 20.34m,0000000001Hz,0000745051c,0000001.617s, 006.7C,00002191
2016-01-05 02:11:56 r, 20.32m,0000000001Hz,0000725247c,0000001.574s, 006.7C,00002191
2016-01-05 02:21:56 r, 20.07m,0000000000Hz,0000582945c,0000001.265s, 006.7C,00002191
2016-01-05 02:31:58 r, 19.87m,0000000001Hz,0000480912c,0000001.044s, 006.7C,00002191
2016-01-05 02:41:56 r, 19.90m,0000000001Hz,0000494349c,0000001.073s, 006.4C,00002191
2016-01-05 02:51:56 r, 20.06m,0000000001Hz,0000576879c,0000001.252s, 006.4C,00002191
2016-01-05 03:01:58 r, 20.18m,0000000000Hz,0000644239c,0000001.398s, 006.4C,00002191
2016-01-05 03:11:56 r, 20.15m,0000000000Hz,0000625831c,0000001.358s, 006.4C,00002191
2016-01-05 03:21:56 r, 20.20m,0000000000Hz,0000654795c,0000001.421s, 006.1C,00002191
2016-01-05 03:31:57 r, 20.15m,0000000001Hz,0000629832c,0000001.367s, 006.1C,00002191
2016-01-05 03:41:56 r, 20.15m,0000000001Hz,0000625092c,0000001.357s, 005.8C,00002191
2016-01-05 03:51:56 r, 20.14m,0000000001Hz,0000622147c,0000001.350s, 005.8C,00002191
2016-01-05 04:01:56 r, 20.08m,0000000001Hz,0000587569c,0000001.275s, 005.8C,00002191
2016-01-05 04:11:56 r, 20.08m,0000000000Hz,0000586623c,0000001.273s, 005.8C,00002191
2016-01-05 04:21:56 r, 19.41m,0000000001Hz,0000318744c,0000000.692s, 005.8C,00002191
2016-01-05 04:31:57 r, 19.24m,0000000001Hz,0000273686c,0000000.594s, 005.8C,00002191
2016-01-05 04:41:56 r, 20.28m,0000000001Hz,0000700722c,0000001.521s, 005.8C,00002191
2016-01-05 04:51:56 r, 20.11m,0000000001Hz,0000605775c,0000001.315s, 005.8C,00002191
2016-01-05 05:01:56 r, 19.97m,0000000001Hz,0000531828c,0000001.154s, 005.4C,00002191
2016-01-05 05:11:56 r, 19.09m,0000000002Hz,0000237300c,0000000.515s, 005.4C,00002191
2016-01-05 05:21:56 r, 18.92m,0000000003Hz,0000203647c,0000000.442s, 005.4C,00002191
2016-01-05 05:31:57 r, 18.88m,0000000002Hz,0000195989c,0000000.425s, 005.4C,00002191
2016-01-05 05:41:56 r, 18.92m,0000000003Hz,0000203553c,0000000.442s, 005.8C,00002191
2016-01-05 05:51:56 r, 18.58m,0000000003Hz,0000148816c,0000000.323s, 005.8C,00002191
2016-01-05 06:01:57 r, 17.92m,0000000005Hz,0000081284c,0000000.176s, 005.8C,00002191
2016-01-05 06:11:56 r, 17.77m,0000000007Hz,0000070195c,0000000.152s, 006.1C,00002191
2016-01-05 06:21:56 r, 17.94m,0000000006Hz,0000082565c,0000000.179s, 006.1C,00002191
2016-01-05 06:31:57 r, 18.13m,0000000004Hz,0000097906c,0000000.212s, 006.1C,00002191
2016-01-05 06:41:56 r, 18.16m,0000000004Hz,0000101211c,0000000.220s, 006.1C,00002191
2016-01-05 06:51:56 r, 18.52m,0000000004Hz,0000141048c,0000000.306s, 006.1C,00002191
2016-01-05 07:01:56 r, 18.65m,0000000002Hz,0000158312c,0000000.344s, 006.1C,00002191
2016-01-05 07:11:56 r, 18.12m,0000000005Hz,0000097278c,0000000.211s, 006.1C,00002191
2016-01-05 07:21:56 r, 17.27m,0000000010Hz,0000044533c,0000000.097s, 006.1C,00002191
2016-01-05 07:31:57 r, 15.79m,0000000041Hz,0000011362c,0000000.025s, 006.1C,00002191
2016-01-05 07:41:56 r, 13.85m,0000000243Hz,0000000000c,0000000.000s, 005.8C,00002191
2016-01-05 07:51:56 r, 11.86m,0000001525Hz,0000000000c,0000000.000s, 005.8C,00002191
2016-01-05 08:01:56 r, 10.13m,0000007533Hz,0000000000c,0000000.000s, 005.8C,00002191
2016-01-05 08:11:56 r, 08.52m,0000033207Hz,0000000000c,0000000.000s, 005.8C,00002191
2016-01-05 08:21:56 r, 07.41m,0000091223Hz,0000000000c,0000000.000s, 005.8C,00002191
2016-01-05 08:31:57 r, 06.96m,0000140055Hz,0000000000c,0000000.000s, 005.8C,00002191
2016-01-05 08:41:56 r, 06.39m,0000235308Hz,0000000000c,0000000.000s, 005.4C,00002191
2016-01-05 08:51:56 r, 05.90m,0000369704Hz,0000000000c,0000000.000s, 005.1C,00002191
2016-01-05 09:01:57 r, 00.00m,0000446392Hz,0000000000c,0000000.000s, 005.1C,00002191
2016-01-05 09:11:56 r, 00.00m,0000537958Hz,0000000000c,0000000.000s, 004.5C,00002191
2016-01-05 09:21:56 r, 00.00m,0000597546Hz,0000000000c,0000000.000s, 004.5C,00002191
2016-01-05 09:31:56 r, 00.00m,0000597482Hz,0000000000c,0000000.000s, 004.5C,00002191
2016-01-05 09:41:56 r, 00.00m,0000597321Hz,0000000000c,0000000.000s, 006.4C,00002191
2016-01-05 09:51:56 r, 00.00m,0000597236Hz,0000000000c,0000000.000s, 008.3C,00002191
2016-01-05 10:01:56 r, 00.00m,0000597111Hz,0000000000c,0000000.000s, 010.3C,00002191
2016-01-05 10:11:56 r, 00.00m,0000596935Hz,0000000000c,0000000.000s, 011.6C,00002191
2016-01-05 10:21:56 r, 00.00m,0000596852Hz,0000000000c,0000000.000s, 012.5C,00002191
2016-01-05 10:31:57 r, 00.00m,0000596767Hz,0000000000c,0000000.000s, 012.8C,00002191
2016-01-05 10:41:56 r, 00.00m,0000596770Hz,0000000000c,0000000.000s, 013.2C,00002191
2016-01-05 10:51:56 r, 00.00m,0000596742Hz,0000000000c,0000000.000s, 013.2C,00002191
2016-01-05 11:01:56 r, 00.00m,0000596898Hz,0000000000c,0000000.000s, 012.5C,00002191
2016-01-05 11:11:56 r, 00.00m,0000596823Hz,0000000000c,0000000.000s, 012.5C,00002191
2016-01-05 11:21:56 r, 00.00m,0000596782Hz,0000000000c,0000000.000s, 012.5C,00002191
2016-01-05 11:31:56 r, 00.00m,0000596752Hz,0000000000c,0000000.000s, 012.5C,00002191
2016-01-05 11:41:56 r, 00.00m,0000596738Hz,0000000000c,0000000.000s, 012.5C,00002191
2016-01-05 11:51:56 r, 00.00m,0000596801Hz,0000000000c,0000000.000s, 012.8C,00002191
2016-01-05 12:01:56 r, 00.00m,0000596823Hz,0000000000c,0000000.000s, 013.2C,00002191
2016-01-05 12:11:56 r, 00.00m,0000596770Hz,0000000000c,0000000.000s, 013.2C,00002191
2016-01-05 12:21:56 r, 00.00m,0000596867Hz,0000000000c,0000000.000s, 011.9C,00002191
2016-01-05 12:31:56 r, 00.00m,0000597013Hz,0000000000c,0000000.000s, 010.3C,00002191
2016-01-05 12:41:56 r, 00.00m,0000597069Hz,0000000000c,0000000.000s, 009.0C,00002191
2016-01-05 12:51:56 r, 00.00m,0000597324Hz,0000000000c,0000000.000s, 008.3C,00002191
2016-01-05 13:01:56 r, 00.00m,0000597160Hz,0000000000c,0000000.000s, 008.0C,00002191
2016-01-05 13:11:56 r, 00.00m,0000597094Hz,0000000000c,0000000.000s, 007.7C,00002191
2016-01-05 13:21:56 r, 00.00m,0000597233Hz,0000000000c,0000000.000s, 007.7C,00002191
2016-01-05 13:31:56 r, 00.00m,0000597208Hz,0000000000c,0000000.000s, 007.7C,00002191
2016-01-05 13:41:56 r, 00.00m,0000597154Hz,0000000000c,0000000.000s, 008.0C,00002191
2016-01-05 13:51:56 r, 00.00m,0000597151Hz,0000000000c,0000000.000s, 007.7C,00002191
2016-01-05 14:01:57 r, 00.00m,0000597094Hz,0000000000c,0000000.000s, 008.0C,00002191
2016-01-05 14:11:56 r, 00.00m,0000597093Hz,0000000000c,0000000.000s, 008.0C,00002191
2016-01-05 14:21:56 r, 00.00m,0000597150Hz,0000000000c,0000000.000s, 008.0C,00002191
2016-01-05 14:31:56 r, 00.00m,0000597193Hz,0000000000c,0000000.000s, 008.0C,00002191
2016-01-05 14:41:56 r, 00.00m,0000597166Hz,0000000000c,0000000.000s, 008.0C,00002191
2016-01-05 14:51:56 r, 00.00m,0000597173Hz,0000000000c,0000000.000s, 008.0C,00002191
2016-01-05 15:01:57 r, 00.00m,0000597163Hz,0000000000c,0000000.000s, 007.7C,00002191
2016-01-05 15:11:56 r, 00.00m,0000597164Hz,0000000000c,0000000.000s, 007.4C,00002191
2016-01-05 15:21:56 r, 00.00m,0000597256Hz,0000000000c,0000000.000s, 007.0C,00002191
2016-01-05 15:31:56 r, 00.00m,0000597256Hz,0000000000c,0000000.000s, 006.7C,00002191
2016-01-05 15:41:56 r, 00.00m,0000597388Hz,0000000000c,0000000.000s, 006.7C,00002191
2016-01-05 15:51:56 r, 00.00m,0000550101Hz,0000000000c,0000000.000s, 007.0C,00002191
2016-01-05 16:01:56 r, 00.00m,0000428601Hz,0000000000c,0000000.000s, 007.4C,00002191
2016-01-05 16:11:56 r, 06.03m,0000329667Hz,0000000000c,0000000.000s, 007.4C,00002191
2016-01-05 16:21:56 r, 06.41m,0000230878Hz,0000000000c,0000000.000s, 006.4C,00002191
2016-01-05 16:31:56 r, 06.89m,0000149244Hz,0000000000c,0000000.000s, 005.4C,00002191
2016-01-05 16:41:57 r, 07.56m,0000080015Hz,0000000000c,0000000.000s, 004.8C,00002191
2016-01-05 16:51:56 r, 08.53m,0000032784Hz,0000000000c,0000000.000s, 004.1C,00002191
2016-01-05 17:01:56 r, 09.88m,0000009420Hz,0000000000c,0000000.000s, 003.8C,00002191
2016-01-05 17:11:56 r, 11.61m,0000001915Hz,0000000000c,0000000.000s, 003.5C,00002191
2016-01-05 17:21:56 r, 13.41m,0000000366Hz,0000000000c,0000000.000s, 003.2C,00002191
2016-01-05 17:31:56 r, 15.44m,0000000056Hz,0000008224c,0000000.018s, 003.2C,00002191
2016-01-05 17:41:56 r, 17.01m,0000000013Hz,0000034817c,0000000.076s, 003.2C,00002191
2016-01-05 17:51:56 r, 18.25m,0000000004Hz,0000109427c,0000000.237s, 002.9C,00002191
2016-01-05 18:01:56 r, 19.30m,0000000001Hz,0000288036c,0000000.625s, 002.9C,00002191
2016-01-05 18:11:57 r, 19.83m,0000000001Hz,0000465548c,0000001.010s, 002.5C,00002191
2016-01-05 18:21:56 r, 20.00m,0000000001Hz,0000547088c,0000001.187s, 002.5C,00002191
2016-01-05 18:31:56 r, 20.05m,0000000001Hz,0000572409c,0000001.242s, 002.2C,00002191
2016-01-05 18:41:56 r, 20.03m,0000000001Hz,0000562601c,0000001.221s, 001.9C,00002191
2016-01-05 18:51:56 r, 20.03m,0000000001Hz,0000564306c,0000001.225s, 001.6C,00002191
2016-01-05 19:01:56 r, 19.99m,0000000001Hz,0000539592c,0000001.171s, 001.2C,00002191
2016-01-05 19:11:57 r, 19.94m,0000000001Hz,0000513385c,0000001.114s, 001.2C,00002191
2016-01-05 19:21:56 r, 19.82m,0000000001Hz,0000461750c,0000001.002s, 000.9C,00002191
2016-01-05 19:31:56 r, 19.60m,0000000001Hz,0000378290c,0000000.821s, 000.9C,00002191
2016-01-05 19:41:56 r, 19.37m,0000000002Hz,0000307148c,0000000.667s, 000.9C,00002191
2016-01-05 19:51:56 r, 19.16m,0000000002Hz,0000253256c,0000000.550s, 000.9C,00002191
2016-01-05 20:01:56 r, 19.28m,0000000002Hz,0000281215c,0000000.610s, 000.9C,00002191
2016-01-05 20:11:56 r, 19.21m,0000000002Hz,0000263036c,0000000.571s, 000.9C,00002191
2016-01-05 20:21:56 r, 19.30m,0000000002Hz,0000288761c,0000000.627s, 000.9C,00002191
2016-01-05 20:31:56 r, 19.09m,0000000001Hz,0000237258c,0000000.515s, 000.9C,00002191
2016-01-05 20:41:56 r, 18.84m,0000000003Hz,0000188211c,0000000.408s, 000.9C,00002191
2016-01-05 20:51:55 r, 18.72m,0000000003Hz,0000169961c,0000000.369s, 001.2C,00002191
2016-01-05 21:01:56 r, 18.53m,0000000003Hz,0000142942c,0000000.310s, 001.6C,00002191
2016-01-05 21:11:55 r, 18.80m,0000000002Hz,0000181520c,0000000.394s, 001.9C,00002191
2016-01-05 21:21:55 r, 19.06m,0000000002Hz,0000230462c,0000000.500s, 001.9C,00002191
2016-01-05 21:31:56 r, 19.65m,0000000001Hz,0000396371c,0000000.860s, 001.9C,00002191
2016-01-05 21:41:56 r, 19.80m,0000000001Hz,0000451006c,0000000.979s, 001.9C,00002191
2016-01-05 21:51:56 r, 20.02m,0000000001Hz,0000555686c,0000001.206s, 001.6C,00002191
2016-01-05 22:01:56 r, 19.57m,0000000002Hz,0000364924c,0000000.792s, 001.2C,00002191
2016-01-05 22:11:57 r, 19.57m,0000000001Hz,0000364745c,0000000.792s, 000.9C,00002191
2016-01-05 22:21:56 r, 19.91m,0000000001Hz,0000503161c,0000001.092s, 000.9C,00002191
2016-01-05 22:31:56 r, 19.89m,0000000001Hz,0000492446c,0000001.069s, 000.6C,00002191
2016-01-05 22:41:55 r, 19.83m,0000000001Hz,0000466413c,0000001.012s, 000.6C,00002191
2016-01-05 22:51:56 r, 19.73m,0000000001Hz,0000423190c,0000000.918s, 000.6C,00002191
2016-01-05 23:01:56 r, 19.63m,0000000001Hz,0000386785c,0000000.839s, 000.3C,00002191
2016-01-05 23:11:57 r, 19.63m,0000000001Hz,0000386105c,0000000.838s, 000.3C,00002191
2016-01-05 23:21:56 r, 19.55m,0000000001Hz,0000358982c,0000000.779s, 000.1C,00002191
2016-01-05 23:31:56 r, 19.38m,0000000002Hz,0000307256c,0000000.667s, 000.1C,00002191
2016-01-05 23:41:56 r, 19.47m,0000000002Hz,0000335261c,0000000.728s,-000.4C,00002191
2016-01-05 23:51:56 r, 19.58m,0000000001Hz,0000367584c,0000000.798s,-000.4C,00002191
